Richmond, VA

2:51 PM EDT on May 28, 2017 (GMT -0400)
Richmond International

Weather History for KRIC - March, 2014

Change the Weather History Date:

Thursday, March 27, 2014

  Actual Average Record
Temperature  
Mean Temperature 39 °F 52 °F  
Max Temperature 56 °F 64 °F 87 °F (1907)
Min Temperature 21 °F 40 °F 21 °F (1955)
Degree Days  
Heating Degree Days 26 13  
Month to date heating degree days 583 465  
Since 1 July heating degree days 3536 3401  
Cooling Degree Days 0 0  
Month to date cooling degree days 2 0  
Year to date cooling degree days 2 0  
Moisture  
Dew Point 16 °F    
Average Humidity 44    
Maximum Humidity 68    
Minimum Humidity 20    
Precipitation  
Precipitation 0.00 in 0.14 in 1.58 in (1891)
Month to date precipitation 1.74 3.51  
Year to date precipitation 8.05 9.31  
Snow  
Snow 0.00 in 0.00 in 6.30 in (1947)
Month to date snowfall 3.6 0.6  
Since 1 July snowfall 14.5 10.2  
Snow Depth 0.00 in    
Sea Level Pressure  
Sea Level Pressure 30.40 in    
Wind  
Wind Speed 8 mph (South)    
Max Wind Speed 20 mph    
Max Gust Speed 26 mph    
Visibility 10 miles    
Events      
T = Trace of Precipitation, MM = Missing Value Source: NWS Daily Summary

Daily Weather History Graph

Daily Weather History Graph

Search for Another Location

Airport or City:

Trip Planner

Search our weather history database for the weather conditions in past years. The results will help you decide how hot, cold, wet, or windy it might be!

Date:

Astronomy

Mar. 27, 2014 Rise Set
Actual Time 7:02 AM EDT 7:27 PM EDT
Civil Twilight 6:36 AM EDT 7:53 PM EDT
Nautical Twilight 6:05 AM EDT 8:24 PM EDT
Astronomical Twilight 5:33 AM EDT 8:56 PM EDT
Moon 4:48 AM EDT (3/27) 4:16 PM EDT (3/27)
Length of Visible Light 13h 17m
Length of Day
12h 25m
Waning Crescent, 13% of the Moon is Illuminated
Mar 27
Waning Crescent
Mar 30
New
Apr 7
First Quarter
Apr 15
Full
Apr 22
Last Quarter

Hourly Weather History & Observations

Time (EDT) Temp. Windchill Dew Point Humidity Pressure Visibility Wind Dir Wind Speed Gust Speed Precip Events Conditions
12:54 AM 30.0 °F 24.1 °F 12.0 °F 47% 30.38 in 10.0 mi North 5.8 mph - N/A   Clear
1:54 AM 28.9 °F - 10.9 °F 47% 30.40 in 10.0 mi Calm Calm - N/A   Clear
2:54 AM 28.0 °F - 12.9 °F 53% 30.40 in 10.0 mi Calm Calm - N/A   Clear
3:54 AM 21.9 °F 17.2 °F 12.9 °F 68% 30.41 in 10.0 mi SSW 3.5 mph - N/A   Clear
4:54 AM 26.1 °F 21.9 °F 15.1 °F 63% 30.42 in 10.0 mi WSW 3.5 mph - N/A   Clear
5:54 AM 23.0 °F - 14.0 °F 68% 30.42 in 10.0 mi Calm Calm - N/A   Clear
6:54 AM 23.0 °F - 12.9 °F 65% 30.45 in 10.0 mi Calm Calm - N/A   Scattered Clouds
7:54 AM 25.0 °F - 16.0 °F 69% 30.47 in 10.0 mi Calm Calm - N/A   Mostly Cloudy
8:54 AM 33.1 °F 27.7 °F 15.1 °F 48% 30.49 in 10.0 mi SSE 5.8 mph - N/A   Mostly Cloudy
9:54 AM 37.0 °F 32.4 °F 12.9 °F 37% 30.51 in 10.0 mi Variable 5.8 mph - N/A   Overcast
10:54 AM 39.9 °F 32.9 °F 14.0 °F 35% 30.51 in 10.0 mi South 11.5 mph - N/A   Overcast
11:54 AM 44.1 °F 38.6 °F 14.0 °F 30% 30.48 in 10.0 mi SSW 10.4 mph - N/A   Mostly Cloudy
12:54 PM 46.0 °F 41.4 °F 14.0 °F 28% 30.46 in 10.0 mi South 9.2 mph 18.4 mph N/A   Overcast
1:54 PM 50.0 °F - 12.9 °F 23% 30.43 in 10.0 mi South 10.4 mph 17.3 mph N/A   Overcast
2:54 PM 51.1 °F - 12.9 °F 22% 30.39 in 10.0 mi South 16.1 mph 20.7 mph N/A   Overcast
3:54 PM 54.0 °F - 14.0 °F 21% 30.36 in 10.0 mi South 15.0 mph 26.5 mph N/A   Scattered Clouds
4:54 PM 54.0 °F - 16.0 °F 22% 30.34 in 10.0 mi South 13.8 mph 23.0 mph N/A   Scattered Clouds
5:54 PM 54.0 °F - 16.0 °F 22% 30.33 in 10.0 mi SSW 16.1 mph 23.0 mph N/A   Scattered Clouds
6:54 PM 52.0 °F - 18.0 °F 26% 30.32 in 10.0 mi South 13.8 mph - N/A   Mostly Cloudy
7:54 PM 48.9 °F - 19.9 °F 32% 30.31 in 10.0 mi South 9.2 mph - N/A   Mostly Cloudy
8:54 PM 48.0 °F - 21.9 °F 36% 30.31 in 10.0 mi SSE 8.1 mph - N/A   Mostly Cloudy
9:54 PM 46.0 °F 41.9 °F 21.9 °F 39% 30.30 in 10.0 mi South 8.1 mph - N/A   Mostly Cloudy
10:54 PM 45.0 °F 39.7 °F 25.0 °F 46% 30.31 in 10.0 mi South 10.4 mph - N/A   Scattered Clouds
11:54 PM 46.0 °F 39.9 °F 26.1 °F 46% 30.28 in 10.0 mi South 13.8 mph - N/A   Mostly Cloudy